Home   Weather   Amstetten   Past weeks

Flag for Austria Past Weather in Amstetten, Lower Austria, Austria — Yesterday and Last 2 Weeks

Now
36 °F

Passing clouds.


Feels Like: N/A
Forecast: 35 / 65 °F
Wind: N/A

Location: Linz / Hoersching-Flughafen

Current Time: Apr 24, 2017 at 9:28:13 am

Latest Report: Apr 24, 2017 at 8:00 am


Visibility: 18 mi

Pressure: 30.21 "Hg

Humidity: 79%

Dew Point: 30 °F

Location of AmstettenLocation

Past Weather in Amstetten — Graph

°F

Amstetten Temperature Yesterday

Maximum temperature yesterday: 49 °F (at 4:00 pm)
Minimum temperature yesterday: 40 °F (at 4:00 am)
Average temperature yesterday: 44 °F

High & Low Weather Summary for the Past Weeks

 TemperatureHumidityPressure
High72 °F (Apr 10, 5:00 pm)96% (Apr 18, 11:00 pm)30.56 "Hg (Apr 18, 11:00 pm)
Low30 °F (Apr 20, 5:00 am)33% (Apr 9, 7:00 pm)29.85 "Hg (Apr 13, 6:00 am)
Average46 °F69%30.15 "Hg
* Reported Apr 9 7:00 am — Apr 24 7:00 am, Amstetten, Weather by CustomWeather, © 2017

Note: Actual official high and low records may vary slightly from our data, if they occured in-between our weather recording intervals... More about our weather records

Advertising

Amstetten Weather History for the Previous 24 Hours

Scroll right to see more
 ConditionsComfort  
Time TempWeatherWind HumidityBarometerVisibility
7:00 am
Mon, Apr 24
31 °FPassing clouds.N/A85%30.22 "Hg22 mi
6:00 am30 °FPassing clouds.N/A86%30.23 "Hg28 mi
5:00 am31 °FChilly.N/A82%30.24 "Hg25 mi
4:00 am32 °FChilly.N/A80%30.25 "Hg28 mi
3:00 am36 °FChilly.N/A74%30.25 "Hg31 mi
2:00 am36 °FChilly.N/A74%30.26 "Hg31 mi
1:00 am39 °FPassing clouds.N/A67%30.27 "Hg28 mi
12:00 am39 °FOvercast.N/A69%30.27 "Hg31 mi
11:00 pm
Sun, Apr 23
40 °FOvercast.N/A66%30.27 "Hg28 mi
10:00 pm42 °FOvercast.6 mph61%30.26 "Hg28 mi
9:00 pm44 °FOvercast.5 mph57%30.23 "Hg31 mi
8:00 pm46 °FOvercast.7 mph49%30.21 "Hg28 mi
7:00 pm46 °FPartly sunny.9 mph48%30.20 "Hg28 mi
6:00 pm48 °FPartly sunny.10 mph45%30.18 "Hg25 mi
5:00 pm48 °FPartly sunny.9 mph49%30.18 "Hg25 mi
4:00 pm49 °FOvercast.9 mph50%30.17 "Hg14 mi
3:00 pm48 °FOvercast.12 mph49%30.19 "Hg16 mi
2:00 pm47 °FOvercast.9 mph54%30.20 "Hg16 mi
1:00 pm44 °FOvercast.9 mph61%30.21 "Hg18 mi
12:00 pm46 °FOvercast.8 mph57%30.21 "Hg12 mi
11:00 am44 °FOvercast.8 mph61%30.22 "Hg17 mi
10:00 am43 °FOvercast.7 mph71%30.22 "Hg17 mi
9:00 am43 °FOvercast.6 mph75%30.22 "Hg22 mi
Weather by CustomWeather, © 2017

See weather overviewHow to use our weather pages